Showing default

NUSAT-44 MARIA MITCHELL, 59122

Orbit data source: Space-Track

NUSAT-44 MARIA MITCHELL, 59122 is a payload satellite owned by URUGUS S.A. (AR) in SSO that was launched on Mon, 04 Mar 2024 UTC via an FALCON 9 launch vehicle from the Air Force Western Test Range (AFWTR). Payload-class satellites include a variety of spacecraft equipped with specific instruments for various scientific and technological missions. These include communications satellites like Starlink; space stations such as the ISS; scientific satellites like the Hubble; Earth observation satellites from companies like Planet Labs, Umbra, and HawkEye 360; GPS; miniature CubeSats for education and research; and military/defense satellites.

Loading next visibility...
Identifier
59122, 2024-043AA
Orbit
SSO
Country
Flag of UnknownUnknown / ARGN
Related business
Manufacturer
URUGUS S.A.
Mission
Operational Commercial Imaging
Bus & Motor
NEWSAT V, Unknown motor
Mass
41.5 kg wet, 38.5 kg dry
Launch date (UTC)
2024-03-04 (2 years ago)
Launch vehicle
FALCON 9
Launch site
Air Force Western Test Range (AFWTR)
Object type
Payload
Rocket body
Debris
Shape & HBR
Box, 1.0 m
Radar Cross Section
0.542 m², Medium (>0.1 m² and < 1m²)

Expand to show TLE details & history
Last TLE update: 10 hours ago

TLE from 10 hours ago
0 NUSAT-44 MARIA MITCHELL
1 59122U 24043AA  25308.94620432  .00015118  00000-0  52806-3 0  9990
2 59122  97.5238  81.1577 0007776 303.9508  56.0992 15.29644795 92980
Epoch: 2025-11-04T22:42Z
TLE epoch observation values (Epoch: 2025-11-04T22:42:32.053Z)
Latitude
-0.00004°
Longitude
56.09822°
Altitude
477.002 km
Speed
7.629 km/s
True Right ascension
05h 24m 37s
True Declination
0° 00' 00"
Sunlit
Object was in full shadow at epoch
Visualization orbit readout
Latitude
Unknown
Longitude
Unknown
Altitude
Unknown
Speed
Unknown
Apparent Right ascension
Unknown
Apparent Declination
Unknown
Sunlit
N/A
Visualization observer readout
Local Sidereal Time
05:08:48
Azimuth
Unknown
Elevation
Unknown
Doppler factor
Unknown
Orbital elements
Apogee altitude
479.159 km
Perigee altitude
468.503 km
Semi-major axis
6,851.968 km
Eccentricity
0.00078
Inclination
97.5238°
RAAN
81.1577°
Arg. of periapsis
303.9508°
True anomaly
56.1732°
Mean anomaly
56.0992°
Eccentric anomaly
56.1362°
Mean motion
3.82666 °/min
Orbital period
94.08 mins
BSTAR
0.00052806
Loading maneuver chart data...
Computing Atmospheric mass density...
Loading historical data...
Loading historical data...
Loading historical data...
Loading historical data...
Loading historical data...
Loading historical data...
Loading historical data...

Documentation

Showing up to 5 results
|